AB8KN-2 Weather Reports


Display with metric or nautical units.
time (UTC)temp
F
wind
direction
speed
MPH
gust
MPH
rain 1hr
in
rain 24hr
in
rain mn
in
humidity
%
barometer
mb
20260903195017 97 273 2.0 7.0 0.00 0.00 0.00 49 1014.6
20260903194017 97 198 2.0 6.0 0.00 0.00 0.00 46 1014.9
20260903193017 95 250 1.0 5.0 0.00 0.00 0.00 49 1015.1
20260903192017 95 288 2.0 5.0 0.00 0.00 0.00 50 1015.3
20260903191016 97 229 2.0 5.0 0.00 0.00 0.00 48 1015.3
20260903190016 97 239 2.0 6.0 0.00 0.00 0.00 48 1015.4
20260903185016 96 278 2.0 6.0 0.00 0.00 0.00 49 1015.3
20260903184016 96 279 1.0 5.0 0.00 0.00 0.00 48 1015.4
20260903183016 96 256 2.0 5.0 0.00 0.00 0.00 49 1015.4
20260903182015 97 192 2.0 5.0 0.00 0.00 0.00 47 1015.6
20260903181017 96 284 2.0 6.0 0.00 0.00 0.00 49 1015.8
20260903180016 96 275 1.0 4.0 0.00 0.00 0.00 50 1015.9
20260903175016 96 269 2.0 5.0 0.00 0.00 0.00 49 1016.0
20260903174016 96 229 2.0 5.0 0.00 0.00 0.00 50 1016.1
20260903173016 95 214 2.0 5.0 0.00 0.00 0.00 52 1016.2
20260903172016 95 253 2.0 6.0 0.00 0.00 0.00 51 1016.2
20260903171016 95 245 2.0 6.0 0.00 0.00 0.00 53 1016.3
20260903170037 94 284 2.0 6.0 0.00 0.00 0.00 54 1016.4
20260903165017 94 282 3.0 9.0 0.00 0.00 0.00 54 1016.4
20260903164017 93 303 2.0 6.0 0.00 0.00 0.00 55 1016.5
20260903163016 93 244 1.0 3.0 0.00 0.00 0.00 57 1016.5
20260903162039 92 271 1.0 5.0 0.00 0.00 0.00 58 1016.7
20260903161017 92 261 1.0 6.0 0.00 0.00 0.00 59 1016.8
20260903160018 91 226 2.0 5.0 0.00 0.00 0.00 60 1016.8
20260903155018 91 232 1.0 6.0 0.00 0.00 0.00 60 1016.9
20260903154018 91 268 1.0 4.0 0.00 0.00 0.00 60 1016.9
20260903153038 91 277 2.0 9.0 0.00 0.00 0.00 60 1016.9
20260903152018 91 267 1.0 5.0 0.00 0.00 0.00 60 1016.8
20260903151035 91 264 1.0 4.0 0.00 0.00 0.00 60 1016.8
20260903150056 90 225 1.0 4.0 0.00 0.00 0.00 61 1016.8
20260903145016 89 210 1.0 4.0 0.00 0.00 0.00 62 1016.8
20260903144016 89 290 1.0 5.0 0.00 0.00 0.00 63 1016.9
20260903143016 89 224 2.0 5.0 0.00 0.00 0.00 63 1016.9
20260903142036 88 244 1.0 4.0 0.00 0.00 0.00 64 1016.9
20260903141016 87 233 1.0 4.0 0.00 0.00 0.00 65 1016.9
20260903140036 86 241 2.0 6.0 0.00 0.00 0.00 66 1016.9
20260903135017 86 274 1.0 5.0 0.00 0.00 0.00 67 1017.0
20260903134057 85 243 1.0 5.0 0.00 0.00 0.00 69 1017.1
20260903133017 85 231 1.0 3.0 0.00 0.00 0.00 69 1017.2
20260903132017 84 239 2.0 4.0 0.00 0.00 0.00 70 1017.2
20260903131017 84 227 1.0 4.0 0.00 0.00 0.00 71 1017.3
20260903130037 83 231 1.0 3.0 0.00 0.00 0.00 72 1017.4
20260903125015 83 261 1.0 3.0 0.00 0.00 0.00 72 1017.4
20260903124015 82 215 0.0 3.0 0.00 0.00 0.00 73 1017.4
20260903123015 81 220 1.0 4.0 0.00 0.00 0.00 75 1017.4
20260903122016 80 205 0.0 2.0 0.00 0.00 0.00 77 1017.4
20260903121016 79 227 0.0 4.0 0.00 0.00 0.00 78 1017.3
20260903120016 78 246 1.0 3.0 0.00 0.00 0.00 80 1017.2
20260903115016 78 353 0.0 1.0 0.00 0.00 0.00 81 1017.1
20260903114056 77 257 0.0 4.0 0.00 0.00 0.00 82 1017.0
20260903113016 77 245 0.0 2.0 0.00 0.00 0.00 83 1017.0
20260903112016 77 54 0.0 1.0 0.00 0.00 0.00 83 1016.9
20260903111016 76 251 0.0 2.0 0.00 0.00 0.00 84 1016.8
20260903110017 76 215 0.0 2.0 0.00 0.00 0.00 84 1016.7
20260903105017 76 0.0 0.0 0.00 0.00 0.00 84 1016.6
20260903104017 76 263 0.0 2.0 0.00 0.00 0.00 84 1016.5
20260903103017 77 212 0.0 1.0 0.00 0.00 0.00 83 1016.4
20260903102017 77 258 0.0 1.0 0.00 0.00 0.00 83 1016.4
20260903101018 77 359 0.0 1.0 0.00 0.00 0.00 82 1016.4
20260903100018 78 281 0.0 2.0 0.00 0.00 0.00 82 1016.3
20260903095018 78 221 0.0 1.0 0.00 0.00 0.00 81 1016.2
20260903094015 78 239 0.0 1.0 0.00 0.00 0.00 80 1016.2
20260903093015 78 235 1.0 3.0 0.00 0.00 0.00 81 1016.2
20260903092036 78 249 0.0 3.0 0.00 0.00 0.00 81 1016.2
20260903091016 78 219 0.0 2.0 0.00 0.00 0.00 80 1016.3
20260903090016 79 223 0.0 3.0 0.00 0.00 0.00 79 1016.2
20260903085016 79 245 0.0 3.0 0.00 0.00 0.00 79 1016.2
20260903084016 79 185 0.0 4.0 0.00 0.00 0.00 79 1016.2
20260903083016 79 273 0.0 2.0 0.00 0.00 0.00 78 1016.2
20260903082017 80 250 0.0 2.0 0.00 0.00 0.00 78 1016.2
20260903081017 80 233 1.0 3.0 0.00 0.00 0.00 77 1016.2
20260903080038 80 245 1.0 4.0 0.00 0.00 0.00 77 1016.2
20260903075038 80 258 1.0 3.0 0.00 0.00 0.00 77 1016.2
20260903074017 80 279 1.0 3.0 0.00 0.00 0.00 76 1016.2
20260903073017 80 270 1.0 4.0 0.00 0.00 0.00 76 1016.2
20260903072018 80 252 1.0 4.0 0.00 0.00 0.00 77 1016.2
20260903071017 80 254 0.0 2.0 0.00 0.00 0.00 77 1016.3
20260903070038 80 208 0.0 2.0 0.00 0.00 0.00 77 1016.3
20260903065015 80 277 1.0 3.0 0.00 0.00 0.00 77 1016.3
20260903064035 80 250 0.0 2.0 0.00 0.00 0.00 77 1016.4
20260903063015 81 248 1.0 5.0 0.00 0.00 0.00 76 1016.4
20260903062016 81 253 1.0 3.0 0.00 0.00 0.00 76 1016.4
20260903061016 81 263 1.0 2.0 0.00 0.00 0.00 76 1016.4
20260903060016 81 244 1.0 3.0 0.00 0.00 0.00 76 1016.4
20260903055016 81 239 0.0 2.0 0.00 0.00 0.00 76 1016.4
20260903054037 81 219 1.0 3.0 0.00 0.00 0.00 76 1016.3
20260903053016 81 242 0.0 2.0 0.00 0.00 0.00 75 1016.2
20260903052017 82 275 0.0 3.0 0.00 0.00 0.00 75 1016.1
20260903051017 82 238 0.0 2.0 0.00 0.00 0.00 74 1016.0
20260903050017 82 235 1.0 4.0 0.00 0.00 0.00 74 1016.0
20260903045018 82 228 1.0 5.0 0.00 0.00 0.00 74 1015.8
20260903044018 82 216 1.0 5.0 0.00 0.00 0.00 74 1015.8
20260903043017 82 213 1.0 4.0 0.00 0.00 0.00 74 1015.7
20260903042020 82 230 1.0 4.0 0.00 0.00 0.00 75 1015.6
20260903041018 81 260 0.0 2.0 0.00 0.00 0.00 76 1015.6
20260903040018 82 204 0.0 1.0 0.00 0.00 0.00 76 1015.7
20260903035018 82 199 1.0 3.0 0.00 0.00 0.00 75 1015.8
20260903034016 82 212 0.0 3.0 0.00 0.00 0.00 75 1015.8
20260903033015 82 213 0.0 2.0 0.00 0.00 0.00 74 1015.8
20260903032016 82 218 0.0 2.0 0.00 0.00 0.00 74 1016.0
20260903031016 83 0.0 0.0 0.00 0.00 0.00 73 1016.1
20260903030018 83 217 0.0 0.0 0.00 0.00 0.00 72 1016.2
20260903025036 83 226 1.0 3.0 0.00 0.00 0.00 71 1016.3
20260903024016 84 151 0.0 1.0 0.00 0.00 0.00 71 1016.3
20260903023017 84 215 0.0 2.0 0.00 0.00 0.00 70 1016.4
20260903022037 84 229 0.0 3.0 0.00 0.00 0.00 70 1016.3
20260903021037 85 229 0.0 1.0 0.00 0.00 0.00 69 1016.3
20260903020017 85 207 0.0 2.0 0.00 0.00 0.00 68 1016.3
20260903015017 85 201 0.0 3.0 0.00 0.00 0.00 68 1016.3
20260903014017 86 216 1.0 3.0 0.00 0.00 0.00 67 1016.3
20260903013018 86 231 0.0 2.0 0.00 0.00 0.00 67 1016.2
20260903012017 86 227 1.0 3.0 0.00 0.00 0.00 66 1016.2
20260903011018 86 219 1.0 3.0 0.00 0.00 0.00 66 1016.1
20260903010038 86 219 1.0 3.0 0.00 0.00 0.00 66 1016.0
20260903005020 87 266 0.0 1.0 0.00 0.00 0.00 65 1015.9
20260903004015 87 229 0.0 3.0 0.00 0.00 0.00 64 1015.9
20260903003035 87 240 0.0 1.0 0.00 0.00 0.00 63 1015.8
20260903002016 88 231 1.0 3.0 0.00 0.00 0.00 62 1015.7
20260903001016 88 223 0.0 2.0 0.00 0.00 0.00 61 1015.7
20260903000016 89 208 0.0 3.0 0.00 0.00 0.00 60 1015.7
20260902235017 89 212 1.0 4.0 0.00 0.00 0.00 59 1015.7
20260902234016 90 217 0.0 4.0 0.00 0.00 0.00 58 1015.6
20260902233016 90 199 1.0 4.0 0.00 0.00 0.00 57 1015.6
20260902232017 90 210 1.0 4.0 0.00 0.00 0.00 56 1015.6
20260902231017 91 199 2.0 5.0 0.00 0.00 0.00 56 1015.6
20260902230037 91 189 1.0 4.0 0.00 0.00 0.00 55 1015.6
20260902225017 91 225 1.0 5.0 0.00 0.00 0.00 54 1015.7
20260902224018 92 228 1.0 5.0 0.00 0.00 0.00 53 1015.7
20260902223038 92 197 2.0 5.0 0.00 0.00 0.00 52 1015.7
20260902222018 92 207 1.0 5.0 0.00 0.00 0.00 52 1015.7
20260902221015 93 192 2.0 7.0 0.00 0.00 0.00 51 1015.7
20260902220018 93 221 2.0 5.0 0.00 0.00 0.00 52 1015.8
20260902215015 93 266 2.0 5.0 0.00 0.00 0.00 51 1015.7
20260902214016 94 196 2.0 5.0 0.00 0.00 0.00 51 1015.8
20260902213036 95 202 3.0 7.0 0.00 0.00 0.00 51 1015.8
20260902212016 94 207 2.0 5.0 0.00 0.00 0.00 51 1015.7
20260902211036 95 183 3.0 7.0 0.00 0.00 0.00 50 1015.8
20260902210016 95 243 2.0 6.0 0.00 0.00 0.00 48 1015.8
20260902205016 96 198 3.0 7.0 0.00 0.00 0.00 48 1015.9
20260902204017 95 255 2.0 5.0 0.00 0.00 0.00 49 1016.0
20260902203016 95 191 1.0 3.0 0.00 0.00 0.00 50 1016.1
20260902202017 96 206 2.0 5.0 0.00 0.00 0.00 50 1016.2
20260902201017 96 254 2.0 5.0 0.00 0.00 0.00 48 1016.2
20260902200017 96 204 3.0 8.0 0.00 0.00 0.00 49 1016.3